LEDGEWOOD Weather Reports


time (UTC)temp
C
wind
direction
speed
KPH
gust
KPH
rain 1hr
cm
rain 24hr
cm
rain mn
cm
humidity
%
barometer
mb
20260507074558 8 236 0.0 4.8 0.00 1.02 0.00 89 1005.6
20260507073109 8 227 0.0 4.8 0.00 1.02 0.00 88 1005.3
20260507071558 9 206 1.6 4.8 0.00 1.02 0.00 88 1005.4
20260507070059 9 226 3.2 8.0 0.00 1.02 0.00 88 1005.2
20260507064605 9 276 0.0 9.7 0.00 1.02 0.00 90 1005.2
20260507063105 9 283 0.0 4.8 0.00 1.02 0.00 90 1005.1
20260507061559 9 261 1.6 6.4 0.00 1.02 0.00 90 1004.9
20260507060059 10 134 0.0 4.8 0.00 1.02 0.00 91 1005.3
20260507054558 10 0 0.0 4.8 0.00 1.02 0.00 91 1005.3
20260507053118 10 0 0.0 3.2 0.00 1.02 0.00 91 1005.0
20260507051605 10 233 0.0 3.2 0.00 1.02 0.00 92 1005.2
20260507050058 10 215 0.0 3.2 0.00 1.02 0.00 90 1004.9
20260507044601 10 283 1.6 8.0 0.00 1.02 0.00 91 1005.3
20260507043059 10 0 1.6 6.4 0.00 1.02 0.00 91 1005.3
20260507041600 11 255 1.6 11.3 0.03 1.02 0.00 92 1005.2
20260507034600 11 183 3.2 9.7 0.03 1.02 1.02 92 1004.6
20260507033101 12 275 3.2 9.7 0.03 1.02 1.02 94 1004.7
20260507031600 13 229 1.6 9.7 0.00 0.99 0.99 93 1004.7
20260507024609 14 305 1.6 11.3 0.00 0.99 0.99 95 1004.1
20260507023101 15 11 3.2 6.4 0.00 0.99 0.99 96 1003.8
20260507021608 15 0 0.0 4.8 0.00 0.99 0.99 96 1003.5
20260507020114 15 0 0.0 4.8 0.00 0.99 0.99 96 1003.6
20260507014606 15 0 0.0 9.7 0.00 0.99 0.99 96 1003.9
20260507013101 15 0 0.0 3.2 0.00 0.99 0.99 96 1003.9
20260507011601 15 0 0.0 3.2 0.00 0.99 0.99 96 1003.9
20260507004608 15 207 0.0 1.6 0.00 0.99 0.99 96 1003.9
20260507003100 15 0 0.0 4.8 0.00 0.99 0.99 96 1003.9
20260507001601 15 240 0.0 4.8 0.03 0.99 0.99 96 1003.8
20260507000101 15 0 1.6 9.7 0.03 0.99 0.99 96 1003.7
20260506234559 15 126 1.6 6.4 0.03 0.99 0.99 95 1003.5
20260506233112 15 91 0.0 6.4 0.03 0.99 0.99 95 1003.4
20260506231602 15 0 0.0 4.8 0.00 0.97 0.97 95 1003.7
20260506230059 15 113 1.6 4.8 0.00 0.97 0.97 95 1003.7
20260506224600 15 94 1.6 12.9 0.10 0.97 0.97 95 1003.7
20260506223059 15 135 1.6 8.0 0.15 0.97 0.97 95 1003.9
20260506221612 15 265 1.6 6.4 0.23 0.97 0.97 95 1004.0
20260506220100 15 257 1.6 6.4 0.30 0.97 0.97 95 1004.2
20260506214559 15 197 3.2 8.0 0.25 0.86 0.86 95 1004.4
20260506213120 15 9 1.6 8.0 0.25 0.81 0.81 94 1004.5
20260506211558 16 177 3.2 8.0 0.30 0.74 0.74 95 1004.6
20260506210101 16 154 0.0 6.4 0.28 0.66 0.66 95 1004.5
20260506204556 16 136 0.0 6.4 0.23 0.61 0.61 95 1004.7
20260506203100 16 132 1.6 9.7 0.20 0.56 0.56 95 1004.7
20260506201559 16 135 0.0 4.8 0.10 0.43 0.43 95 1004.7
20260506200059 16 140 0.0 1.6 0.10 0.38 0.38 95 1004.8
20260506194601 16 128 0.0 1.6 0.15 0.38 0.38 94 1004.6
20260506193100 16 0 0.0 1.6 0.18 0.36 0.36 94 1004.5
20260506191557 16 187 0.0 3.2 0.23 0.33 0.33 93 1004.9
20260506190101 16 0 0.0 1.6 0.28 0.28 0.28 92 1005.2
20260506184603 16 271 0.0 1.6 0.23 0.23 0.23 92 1005.5
20260506183105 16 225 0.0 3.2 0.18 0.18 0.18 91 1005.4
20260506181623 17 0 0.0 6.4 0.10 0.10 0.10 88 1005.4
20260506180058 20 269 3.2 9.7 0.00 0.00 0.00 73 1005.6
20260506174558 21 307 3.2 19.3 0.00 0.00 0.00 60 1004.9
20260506173108 22 232 6.4 19.3 0.00 0.00 0.00 58 1005.0
20260506171605 22 219 4.8 17.7 0.00 0.00 0.00 58 1005.2
20260506170109 22 131 4.8 19.3 0.00 0.00 0.00 59 1005.4
20260506164614 22 227 4.8 16.1 0.00 0.00 0.00 61 1005.6
20260506163112 22 199 3.2 17.7 0.00 0.00 0.00 61 1005.9
20260506161601 22 228 3.2 17.7 0.00 0.00 0.00 61 1006.3
20260506160110 21 272 1.6 12.9 0.00 0.00 0.00 62 1006.7
20260506154604 21 112 4.8 17.7 0.00 0.00 0.00 62 1006.8
20260506153115 22 257 4.8 14.5 0.00 0.00 0.00 61 1007.1
20260506151610 21 145 3.2 9.7 0.00 0.00 0.00 65 1007.2
20260506144613 20 138 3.2 12.9 0.00 0.00 0.00 68 1007.2
20260506143057 20 136 3.2 17.7 0.00 0.00 0.00 69 1007.3
20260506141558 20 0 1.6 11.3 0.00 0.00 0.00 70 1007.0
20260506140105 19 210 3.2 16.1 0.00 0.00 0.00 71 1007.3
20260506134558 19 3 1.6 9.7 0.00 0.00 0.00 72 1007.3
20260506133058 18 233 3.2 12.9 0.00 0.00 0.00 72 1007.5
20260506131559 18 215 1.6 9.7 0.00 0.00 0.00 73 1007.4
20260506130103 19 60 3.2 8.0 0.00 0.00 0.00 72 1007.5
20260506124608 18 238 1.6 6.4 0.00 0.00 0.00 74 1007.3
20260506123101 18 179 3.2 9.7 0.00 0.00 0.00 74 1007.3
20260506121559 17 234 1.6 11.3 0.00 0.00 0.00 75 1007.6
20260506120100 17 217 1.6 8.0 0.00 0.00 0.00 77 1007.8
20260506114607 16 229 0.0 8.0 0.00 0.00 0.00 78 1007.9
20260506113059 16 203 0.0 6.4 0.00 0.00 0.00 78 1008.1
20260506111558 16 0 0.0 3.2 0.00 0.00 0.00 79 1008.1
20260506104606 15 0 0.0 6.4 0.00 0.00 0.00 81 1008.1
20260506103059 15 0 0.0 3.2 0.00 0.00 0.00 81 1008.1
20260506101559 15 220 0.0 3.2 0.00 0.00 0.00 81 1008.0
20260506100058 15 0 0.0 8.0 0.00 0.00 0.00 81 1008.3
20260506094559 15 0 0.0 8.0 0.00 0.00 0.00 81 1008.0
20260506093059 15 0 0.0 4.8 0.00 0.00 0.00 80 1008.1
20260506091601 15 0 0.0 4.8 0.00 0.00 0.00 80 1007.9
20260506090104 15 0 0.0 4.8 0.00 0.00 0.00 80 1007.9
20260506084606 15 0 0.0 4.8 0.00 0.00 0.00 78 1007.9
20260506083059 15 0 0.0 3.2 0.00 0.00 0.00 78 1007.9
20260506081600 15 101 0.0 1.6 0.00 0.00 0.00 78 1007.9
20260506080108 15 0 0.0 1.6 0.00 0.00 0.00 76 1007.9